This demonstration page uses our WeatherBlox Daily Observations layout. Learn more.

40.92945, -100.16068

Hourly Observations for July 7, 2015

Temp ( °F °C ) Dew Point ( °F °C ) Humidity (%) Winds ( mph kmh ) Pressure ( in mb ) Visibility ( mi km ) Precip ( " mm )
12:15 am 00:15 Clear 58 14.7 55 12.9 89 89 Calm 30.12 1020 7 11.26538 N/A
12:35 am 00:35 Clear 58 14.4 54 12.4 88 88 Calm 30.15 1021 7 11.26538 N/A
12:55 am 00:55 Clear 57 13.9 54 12.2 90 90 N 6 9 30.15 1021 7 11.26538 N/A
1:15 am 01:15 Clear 56 13.5 54 12 91 91 N 6 9 30.15 1021 7 11.26538 N/A
1:35 am 01:35 Clear 56 13.4 53 11.9 91 91 N 7 11 30.15 1021 7 11.26538 N/A
1:55 am 01:55 Clear 56 13.4 54 12 91 91 NNE 6 9 30.15 1021 7 11.26538 N/A
2:15 am 02:15 Clear 56 13.5 54 12 91 91 NNE 5 7 30.15 1021 7 11.26538 N/A
2:35 am 02:35 Clear with Mist and Fog 55 12.7 52 11.3 91 91 Calm 30.15 1021 5 8.0467 N/A
2:55 am 02:55 Clear with Mist and Fog 56 13.3 54 12 92 92 Calm 30.15 1021 5 8.0467 N/A
3:15 am 03:15 Clear with Mist and Fog 55 12.7 52 11.2 91 91 N 5 7 30.18 1022 5 8.0467 N/A
3:35 am 03:35 Clear with Mist and Fog 54 12.2 52 11.1 93 93 NNW 5 7 30.18 1022 5 8.0467 N/A
3:55 am 03:55 Clear with Mist and Fog 53 11.7 51 10.7 94 94 N 5 7 30.15 1021 4 6.43736 N/A
4:15 am 04:15 Clear with Mist and Fog 53 11.5 51 10.6 94 94 N 3 6 30.15 1021 4 6.43736 N/A
4:35 am 04:35 Clear with Mist and Fog 53 11.5 51 10.6 94 94 N 3 6 30.15 1021 4 6.43736 N/A
4:55 am 04:55 Clear with Mist and Fog 53 11.5 51 10.5 94 94 WNW 3 6 30.15 1021 4 6.43736 N/A
5:15 am 05:15 Clear with Mist and Fog 52 10.9 50 10 94 94 Calm 30.18 1022 4 6.43736 N/A
5:35 am 05:35 Clear with Mist and Fog 52 10.9 50 10 94 94 Calm 30.18 1022 4 6.43736 N/A
5:55 am 05:55 Clear with Mist and Fog 52 11 50 10.1 94 94 Calm 30.18 1022 4 6.43736 N/A
6:15 am 06:15 Sunny with Mist and Fog 51 10.3 49 9.5 95 95 Calm 30.18 1022 2.5 4.02335 N/A
6:35 am 06:35 Sunny with Mist and Fog 51 10.6 50 9.8 95 95 Calm 30.18 1022 2.5 4.02335 N/A
6:55 am 06:55 Sunny with Mist and Fog 52 10.9 50 10 94 94 WNW 5 7 30.18 1022 2.5 4.02335 0 0
7:15 am 07:15 Sunny with Mist and Fog 53 11.5 51 10.7 95 95 Calm 30.18 1022 2.5 4.02335 N/A
7:35 am 07:35 Sunny with Mist and Fog 55 12.6 53 11.8 95 95 Calm 30.18 1022 2.5 4.02335 N/A
7:55 am 07:55 Sunny with Mist and Fog 56 13.2 54 12.4 95 95 Calm 30.18 1022 3 4.82802 N/A
8:15 am 08:15 Sunny with Mist and Fog 58 14.4 56 13.1 92 92 Calm 30.18 1022 4 6.43736 N/A
8:35 am 08:35 Hazy 61 15.9 56 13.5 86 86 SE 5 7 30.15 1021 5 8.0467 N/A
8:55 am 08:55 Hazy 62 16.5 56 13.1 80 80 E 5 7 30.18 1022 5 8.0467 N/A
9:15 am 09:15 Hazy 63 17 55 13 77 77 ESE 5 7 30.18 1022 5 8.0467 N/A
9:35 am 09:35 Sunny 64 17.7 55 12.6 72 72 ESE 6 9 30.18 1022 7 11.26538 N/A
9:55 am 09:55 Sunny 65 18.3 55 12.5 69 69 ESE 7 11 30.15 1021 7 11.26538 N/A
10:15 am 10:15 Sunny 65 18.6 55 12.5 68 68 ENE 5 7 30.12 1020 7 11.26538 N/A
10:35 am 10:35 Sunny 67 19.2 55 12.7 66 66 Calm 30.12 1020 7 11.26538 N/A
10:55 am 10:55 Sunny 67 19.4 54 12.3 64 64 NNE 3 6 30.12 1020 7 11.26538 N/A
11:15 am 11:15 Sunny 69 20.4 55 13 63 63 NE 5 7 30.12 1020 7 11.26538 N/A
11:35 am 11:35 Sunny 69 20.7 54 12.3 59 59 NE 5 7 30.12 1020 7 11.26538 N/A
11:55 am 11:55 Sunny 70 20.9 54 12 57 57 ENE 7 11 30.12 1020 7 11.26538 N/A
12:15 pm 12:15 Partly Cloudy 70 21.3 55 12.5 57 57 E 9 15 30.09 1019 7 11.26538 N/A
12:35 pm 12:35 Partly Cloudy 71 21.9 53 11.4 51 51 ENE 6 9 30.06 1018 7 11.26538 N/A
12:55 pm 12:55 Sunny 72 22.1 53 11.6 51 51 ESE 8 13 30.06 1018 7 11.26538 N/A
1:15 pm 13:15 Partly Cloudy 72 22.2 53 11.5 51 51 ESE 3 6 30.06 1018 7 11.26538 N/A
1:35 pm 13:35 Partly Cloudy 73 22.6 51 10.8 47 47 E 6 9 30.06 1018 7 11.26538 N/A
1:55 pm 13:55 Partly Cloudy 73 22.7 52 11.3 49 49 ENE 10 17 30.06 1018 7 11.26538 N/A
2:15 pm 14:15 Partly Cloudy 74 23.3 52 11.3 47 47 ENE 6 9 30.03 1017 7 11.26538 N/A
2:35 pm 14:35 Partly Cloudy 73 23 52 11.1 47 47 E 8 13 30.03 1017 7 11.26538 N/A
2:55 pm 14:55 Partly Cloudy 74 23.5 53 11.5 47 47 SE 8 13 30.03 1017 7 11.26538 N/A
3:15 pm 15:15 Hazy 75 23.8 53 11.4 46 46 ENE 6 9 30.03 1017 2.5 4.02335 N/A
3:35 pm 15:35 Partly Cloudy 75 24 51 10.5 43 43 ENE 7 11 30.03 1017 10 16.0934 N/A
3:55 pm 15:55 Partly Cloudy 75 24.1 53 11.4 45 45 E 12 19 30 1016 10 16.0934 N/A
4:15 pm 16:15 Mostly Cloudy 76 24.2 52 11 44 44 NE 12 19 30 1016 10 16.0934 N/A
4:35 pm 16:35 Mostly Cloudy 76 24.4 51 10.4 41 41 ENE 6 9 30 1016 10 16.0934 N/A
4:55 pm 16:55 Partly Cloudy 76 24.6 50 10 40 40 NE 10 17 29.97 1015 10 16.0934 N/A
5:15 pm 17:15 Mostly Cloudy 74 23.6 50 9.9 42 42 ENE 6 9 30 1016 10 16.0934 N/A
5:35 pm 17:35 Partly Cloudy 75 23.9 51 10.3 42 42 E 9 15 30 1016 10 16.0934 N/A
5:55 pm 17:55 Partly Cloudy 74 23.6 52 11 45 45 E 10 17 30 1016 10 16.0934 N/A
6:15 pm 18:15 Mostly Cloudy 74 23.6 50 10.1 43 43 E 7 11 30 1016 10 16.0934 N/A
6:35 pm 18:35 Partly Cloudy 74 23.6 52 11.1 45 45 SSE 7 11 30 1016 10 16.0934 N/A
6:55 pm 18:55 Partly Cloudy 74 23.1 52 10.9 46 46 SE 10 17 30 1016 10 16.0934 N/A
7:15 pm 19:15 Sunny 73 22.5 52 10.9 48 48 SE 7 11 30 1016 10 16.0934 N/A
7:35 pm 19:35 Sunny 72 22 53 11.6 52 52 SE 8 13 30 1016 10 16.0934 N/A
7:55 pm 19:55 Sunny 71 21.6 54 12.1 55 55 SE 8 13 29.97 1015 10 16.0934 N/A
8:15 pm 20:15 Sunny 71 21.5 54 12 55 55 SE 7 11 29.97 1015 10 16.0934 N/A
8:35 pm 20:35 Sunny 69 20.6 54 12 58 58 SE 5 7 29.97 1015 10 16.0934 N/A
8:55 pm 20:55 Sunny 67 19.4 55 12.6 65 65 SSE 8 13 30 1016 10 16.0934 N/A
9:15 pm 21:15 Clear 65 18.5 55 12.6 69 69 SSE 7 11 30 1016 7 11.26538 N/A
9:35 pm 21:35 Clear 64 17.6 55 12.6 73 73 SSE 7 11 30 1016 10 16.0934 N/A
9:55 pm 21:55 Clear 63 17 55 12.8 76 76 SE 5 7 30.03 1017 10 16.0934 N/A
10:15 pm 22:15 Clear 62 16.6 55 12.8 78 78 SSE 5 7 30.06 1018 7 11.26538 N/A
10:35 pm 22:35 Clear 62 16.6 55 13 79 79 SSE 3 6 30.06 1018 7 11.26538 N/A
10:55 pm 22:55 Clear 62 16.4 55 12.8 79 79 SE 3 6 30.06 1018 7 11.26538 N/A
11:15 pm 23:15 Clear 61 16 55 12.7 81 81 SSE 3 6 30.06 1018 7 11.26538 N/A
11:35 pm 23:35 Clear 61 16 55 12.6 80 80 SE 5 7 30.06 1018 7 11.26538 N/A
11:55 pm 23:55 Clear 60 15.7 55 12.6 82 82 SE 5 7 30.06 1018 7 11.26538 N/A

Powered by AerisWeather